カタログに戻る

THORAD DELTA 1 DEB

運用中SSO
NORAD 8145·DEBRIS·🇺🇸 United States

打ち上げ Nov 15, 1974 から Vandenberg Space Force Base

Loading…

次のパス (今後24時間)

TLE

最新Source: Space-Track

元期: Sep 14, 2026, 03:03 UTC

1 08145U 74089P   26257.12747632  .00000056  00000-0  55786-3 0  9995
2 08145 101.0786  98.7239 0027344 321.5642 160.2322 12.60663707381460

AllMySatでTHORAD DELTA 1 DEBをリアルタイム追跡

Download on the App Store